User: anonymous   Login
Location: Summit Observatory
(39.5293°N, 75.7290°W)
Time: 23:39:41
(UTC-05:00)
Language:

Gurwin Techsat 1B - Orbit

View from above orbital plane
View from above orbital plane
View from above satellite
View from above satellite

Ground track
Ground track

The orbit data is extracted from the following two-line orbital elements,

1 25397U 98043D   14352.19459990  .00000068  00000-0  48417-4 0  5236
2 25397 098.4966 303.5569 0002348 119.0376 000.1903 14.23497589854041
Epoch (UTC): 18 December 2014 04:40:13
Eccentricity: 0.0002348
inclination: 98.4966°
perigee height: 812 km
apogee height: 815 km
right ascension of ascending node: 303.5569°
argument of perigee: 119.0376°
revolutions per day: 14.23497589
mean anomaly at epoch: 0.1903°
orbit number at epoch: 85404

The dashed part of the orbit path shows where the satellite is in the earth's shadow,  

DLR